EW2549 Weather Reports


Display with metric or nautical units.
time (UTC)temp
F
wind
direction
speed
MPH
gust
MPH
rain 1hr
in
rain 24hr
in
rain mn
in
humidity
%
barometer
mb
20260831174600 76 113 0.0 0.0 0.00 0.02 0.00 38 1010.4
20260831173100 76 113 0.0 0.0 0.00 0.02 0.00 39 1010.5
20260831171550 76 113 0.0 0.0 0.00 0.02 0.00 40 1010.5
20260831170056 76 121 0.0 0.0 0.00 0.02 0.00 40 1010.5
20260831163051 75 191 0.0 0.0 0.00 0.02 0.00 42 1010.5
20260831161544 75 191 0.0 0.0 0.00 0.02 0.00 43 1010.3
20260831160047 75 192 0.0 0.0 0.00 0.02 0.00 44 1010.2
20260831154540 74 192 0.0 0.0 0.00 0.02 0.00 48 1010.2
20260831153038 73 200 0.0 0.0 0.00 0.02 0.00 46 1010.3
20260831151534 71 277 0.0 0.0 0.00 0.02 0.00 48 1010.2
20260831150030 69 277 0.0 0.0 0.00 0.02 0.00 51 1010.4
20260831144545 66 277 0.0 0.0 0.00 0.02 0.00 55 1010.5
20260831143035 64 280 0.0 0.0 0.00 0.02 0.00 61 1010.5
20260831141529 62 280 0.0 0.0 0.00 0.02 0.00 68 1010.4
20260831140027 61 280 0.0 0.0 0.00 0.02 0.00 69 1010.2
20260831134524 60 280 0.0 0.0 0.00 0.02 0.00 69 1009.9
20260831133023 59 280 0.0 0.0 0.00 0.02 0.00 69 1009.8
20260831131521 58 280 0.0 0.0 0.00 0.02 0.00 68 1009.5
20260831130022 58 280 0.0 0.0 0.00 0.02 0.00 69 1009.2
20260831124517 58 280 0.0 0.0 0.00 0.02 0.00 70 1009.1
20260831123016 58 280 0.0 0.0 0.00 0.02 0.00 69 1008.8
20260831121524 57 280 0.0 0.0 0.00 0.02 0.00 69 1008.7
20260831120019 57 280 0.0 0.0 0.00 0.02 0.00 69 1008.5
20260831114512 57 280 0.0 0.0 0.00 0.02 0.00 71 1008.4
20260831113012 57 280 0.0 0.0 0.00 0.02 0.00 72 1008.5
20260831111510 57 280 0.0 0.0 0.00 0.02 0.00 72 1008.3
20260831110009 58 280 0.0 0.0 0.00 0.02 0.00 71 1008.3
20260831104510 58 280 0.0 0.0 0.00 0.02 0.00 72 1008.2
20260831103004 59 280 0.0 0.0 0.00 0.02 0.00 72 1008.1
20260831101502 59 280 0.0 0.0 0.00 0.02 0.00 73 1008.2
20260831100106 60 280 0.0 0.0 0.00 0.02 0.00 71 1008.1
20260831094558 60 280 0.0 0.0 0.00 0.02 0.00 70 1007.9
20260831093155 60 280 0.0 0.0 0.00 0.02 0.00 70 1007.7
20260831091554 61 280 0.0 0.0 0.00 0.02 0.00 69 1007.6
20260831090052 61 280 0.0 0.0 0.00 0.02 0.00 68 1007.6
20260831084559 62 280 0.0 0.0 0.00 0.02 0.00 68 1007.5
20260831083050 62 280 0.0 0.0 0.00 0.02 0.00 68 1007.7
20260831081605 63 216 0.0 0.0 0.00 0.02 0.00 69 1007.7
20260831080042 63 216 0.0 0.0 0.00 0.02 0.00 68 1007.8
20260831074544 64 192 0.0 0.0 0.00 0.02 0.00 67 1007.9
20260831073101 65 119 0.0 0.0 0.00 0.02 0.00 66 1008.2
20260831071532 65 119 0.0 0.0 0.00 0.02 0.00 64 1008.4
20260831070033 66 119 0.0 0.0 0.00 0.02 0.00 61 1008.4
20260831064534 68 123 0.0 0.0 0.00 0.02 0.00 58 1008.4
20260831063023 69 122 0.0 0.0 0.00 0.02 0.00 54 1008.5
20260831061530 69 122 0.0 11.0 0.00 0.02 0.00 47 1008.6
20260831060016 69 183 1.0 5.0 0.00 0.02 0.00 45 1008.5
20260831054515 69 240 0.0 0.0 0.00 0.02 0.02 48 1008.6
20260831053021 69 280 0.0 14.0 0.00 0.02 0.02 48 1008.9
20260831051514 68 245 2.0 14.0 0.00 0.02 0.02 50 1008.8
20260831050033 65 236 0.0 3.0 0.00 0.02 0.02 58 1009.5
20260831044513 64 248 0.0 0.0 0.00 0.02 0.02 71 1009.7
20260831043013 62 215 0.0 0.0 0.00 0.02 0.02 72 1009.4
20260831041507 62 80 0.0 0.0 0.00 0.02 0.02 73 1009.0
20260831040018 62 80 0.0 0.0 0.00 0.02 0.02 76 1008.7
20260831034506 62 80 0.0 0.0 0.00 0.02 0.02 75 1008.5
20260831033005 62 80 0.0 0.0 0.00 0.02 0.02 75 1008.6
20260831030104 63 80 0.0 0.0 0.00 0.02 0.02 73 1007.9
20260831024559 64 80 0.0 0.0 0.00 0.02 0.02 70 1008.1
20260831023057 65 80 0.0 0.0 0.00 0.02 0.02 67 1007.9
20260831021558 67 80 0.0 0.0 0.00 0.02 0.02 66 1007.7
20260831020054 68 80 0.0 0.0 0.00 0.02 0.02 63 1007.5
20260831014554 69 80 0.0 0.0 0.00 0.02 0.02 61 1007.4
20260831013055 70 80 0.0 0.0 0.00 0.02 0.02 59 1007.1
20260831011552 71 80 0.0 0.0 0.00 0.02 0.02 58 1007.0
20260831010055 72 80 0.0 0.0 0.00 0.02 0.02 55 1007.0
20260831004552 73 80 0.0 0.0 0.00 0.02 0.02 54 1007.0
20260831003052 73 80 0.0 0.0 0.00 0.02 0.02 52 1007.2
20260831001551 73 78 0.0 0.0 0.00 0.02 0.02 51 1007.1
20260831000058 72 74 0.0 2.0 0.00 0.02 0.02 51 1007.0
20260830234555 73 65 0.0 2.0 0.00 0.02 0.02 50 1007.1
20260830233059 73 136 0.0 1.0 0.00 0.02 0.02 52 1006.9
20260830231549 73 116 0.0 0.0 0.00 0.02 0.02 50 1006.5
20260830230048 73 69 0.0 0.0 0.00 0.02 0.02 51 1006.4
20260830224548 73 93 0.0 0.0 0.00 0.02 0.02 50 1006.5
20260830223050 73 93 0.0 0.0 0.00 0.02 0.02 50 1006.7
20260830221550 72 193 0.0 0.0 0.00 0.02 0.02 46 1006.9
20260830220059 72 209 0.0 10.0 0.00 0.02 0.02 44 1007.1
20260830214547 69 281 5.0 13.0 0.00 0.03 0.02 49 1007.1
20260830213046 69 250 12.0 23.0 0.02 0.03 0.02 51 1007.1
20260830211549 67 239 2.0 16.0 0.02 0.03 0.02 55 1007.2
20260830210044 66 257 3.0 12.0 0.02 0.03 0.02 60 1007.4
20260830204554 67 267 5.0 15.0 0.02 0.03 0.02 61 1007.1
20260830203042 74 293 6.0 25.0 0.00 0.01 0.00 41 1007.2
20260830201548 80 288 2.0 11.0 0.00 0.01 0.00 42 1006.3
20260830200137 82 292 2.0 8.0 0.00 0.01 0.00 35 1005.7
20260830194540 83 263 0.0 4.0 0.00 0.01 0.00 36 1004.7
20260830193035 83 95 0.0 4.0 0.00 0.01 0.00 35 1004.3
20260830191612 82 134 0.0 5.0 0.00 0.01 0.00 35 1004.2
20260830190037 81 84 0.0 3.0 0.00 0.01 0.00 36 1004.3
20260830184536 81 120 1.0 10.0 0.00 0.01 0.00 36 1004.3
20260830183033 82 53 0.0 8.0 0.00 0.01 0.00 36 1004.5
20260830181530 82 92 0.0 10.0 0.00 0.01 0.00 36 1004.7
20260830180035 82 142 0.0 4.0 0.00 0.01 0.00 37 1004.9